Regional Weather Roundup
Issued by NWS

Home | Current Version | Previous Version | Text Only | Print | Product List | Glossary Off
Versions: 1 2 3 4 5 6 7 8 9 10 11 12 13 14 15 16 17 18 19 20 21 22 23 24 25 26 27 28 29 30 31 32 33 34 35 36 37 38 39 40 41 42 43 44 45 46 47 48 49 50

000
ASUS43 KDMX 270106
RWRIA

WEATHER ROUNDUP FOR IOWA
NATIONAL WEATHER SERVICE DES MOINES IA
800 PM CDT FRI MAY 26 2017

NOTE: "FAIR" INDICATES FEW OR NO CLOUDS BELOW 12,000 FEET WITH NO
SIGNIFICANT WEATHER AND/OR OBSTRUCTIONS TO VISIBILITY.

* - THESE STATIONS ARE NOT NWS STATIONS...THUS NOT UNDER NWS
QUALITY CONTROL.  THEY ALSO DO NOT REPORT WEATHER SUCH
AS PRECIPITATION OR FOG.

IAZ001>003-012>014-020>022-031>034-043>046-270200-
   NORTHWEST IOWA

CITY           SKY/WX    TMP DP  RH WIND       PRES   REMARKS
CARROLL *      CLEAR     79  46  31 NW6       29.80S
CHEROKEE *     CLEAR     71  44  37 NW6       29.82S
DENISON *      CLEAR     73  48  40 NW7       29.83R
LE MARS *      CLEAR     73  43  33 W8        29.84R
ORANGE CITY *  CLEAR     70  45  40 W10       29.84R
SHELDON *      CLEAR     73  41  31 W9G16     29.82R
SIOUX CITY     CLEAR     71  49  45 NW9       29.83R
SPENCER        CLEAR     70  47  43 NW9       29.82R
STORM LAKE *   CLEAR     73  43  33 NW15      29.82R
$$

IAZ055>058-069>071-079>083-090>094-270200-
   SOUTHWEST IOWA

CITY           SKY/WX    TMP DP  RH WIND       PRES   REMARKS
ATLANTIC *     CLEAR     77  46  33 N5        29.81R
AUDUBON *      CLEAR     75  46  35 NW3       29.82S
CLARINDA *     PTCLDY    81  54  39 N12       29.82R HX  80
COUNCIL BLFS * CLEAR     75  50  41 N5        29.83R
CRESTON *      MOCLDY    79  59  50 CALM      29.82R HX  80
HARLAN  *      CLEAR     77  48  36 NW7       29.85R
LAMONI         CLEAR     78  63  59 CALM      29.80R HX  80
RED OAK *      CLEAR     79  48  34 N8        29.81R
SHENANDOAH *   CLEAR     79  52  38 N7        29.81R
$$

IAZ047>049-059>061-072>074-084-270200-
   CENTRAL IOWA

CITY           SKY/WX    TMP DP  RH WIND       PRES   REMARKS
AMES           PTCLDY    78  63  59 CALM      29.78R HX  80
ANKENY *       MOCLDY    77  61  57 CALM      29.79R
BOONE *        MOCLDY    77  59  53 NE3       29.78S
CHARITON *     CLEAR     75  63  64 E6        29.80R
DES MOINES     PTCLDY    80  58  46 CALM      29.78R HX  80
GRINNELL*      CLEAR     67  61  79 E9        29.82R
KNOXVILLE *    CLEAR     72  63  73 E7        29.79R
MARSHALLTOWN   PTCLDY    68  61  78 E12       29.79R
NEWTON *       CLEAR     68  61  77 E9        29.79S
PELLA *        CLEAR     71  62  73 E7        29.81R
PERRY *          N/A     80  42  26 NW9       29.79R
$$

IAZ004>006-015-016-023>025-035-036-270200-
   NORTH CENTRAL IOWA

CITY           SKY/WX    TMP DP  RH WIND       PRES   REMARKS
ALGONA *       CLEAR     77  45  31 NW10      29.80R
CLARION *      CLOUDY    77  48  36 W6        29.79R
ESTHERVILLE    CLEAR     71  46  40 NW13      29.80R
FORT DODGE *   CLEAR     75  48  38 W3        29.80R
MASON CITY     PTCLDY    73  58  59 SE9       29.79R
FOREST CITY *    N/A     77  34  20 W5        29.78S
WEBSTER CITY * PTCLDY    79  46  31 NW9       29.77R
IOWA FALLS *     N/A     73  59  59 E9        29.80R
$$

IAZ007>011-017>019-026>030-037>042-050>054-066-270200-
   NORTHEAST IOWA

CITY           SKY/WX    TMP DP  RH WIND       PRES   REMARKS
CEDAR RAPIDS   PTCLDY    65  61  87 E3        29.81S
CHARLES CITY * CLOUDY    68  61  77 SE8       29.81R
CLINTON *      CLOUDY    63  60  90 NE10      29.83R
DECORAH *      PTCLDY    66  57  72 S5        29.81R
DUBUQUE        MOCLDY    63  59  87 E5        29.83F
MONTICELLO *   CLEAR     64  61  88 E3        29.82S
OELWEIN *      PTCLDY    66  59  77 SE7       29.82S
WATERLOO       PTCLDY    66  58  75 SE10      29.80R
$$

IAZ064-065-067-068-078-270200-
   EAST CENTRAL IOWA

CITY           SKY/WX    TMP DP  RH WIND       PRES   REMARKS
DAVENPORT      CLOUDY    64  59  83 NE8       29.82R
IOWA CITY      PTCLDY    68  60  75 N6        29.83R
MT. PLEASANT * PTCLDY    67  59  75 N8        29.81R
MUSCATINE *    CLOUDY    68  61  77 N6        29.82R
QUAD CITIES    CLOUDY    66  60  81 VRB3      29.80R
$$

IAZ062-063-075>077-085>089-095>099-270200-
   SOUTHEAST IOWA

CITY           SKY/WX    TMP DP  RH WIND       PRES   REMARKS
BURLINGTON     CLEAR     69  62  78 N9        29.80R
FAIRFIELD *    CLEAR     66  61  82 NE7       29.81R
FORT MADISON * CLEAR     70  63  78 N9        29.81R
KEOKUK *       CLEAR     72  63  73 N7        29.79R
OSKALOOSA *      N/A     69  62  78 NE7       29.81R
CENTERVILLE *    N/A     73  61  64 CALM      29.82R
OTTUMWA        CLEAR     70  63  78 NE8       29.79S
WASHINGTON *   CLOUDY    66  63  88 N6        29.82S
$$

ABBREVIATIONS USED IN REMARKS
   TC - TEMPERATURES IN CELSIUS
  WCI - WIND CHILL INDEX
   HX - HEAT INDEX
  VSB - VISIBILITY
$$




USA.gov is the U.S. government's official web portal to all federal, state and local government web resources and services.